| time (UTC) | temp F | wind direction | speed MPH | gust MPH | rain 1hr in | rain 24hr in | rain mn in | humidity % | barometer mb |
| 20260506001025 | 80 | 314 | 2.0 | 8.0 | 0.00 | 0.00 | 0.00 | 64 | 1006.5 |
| 20260506000025 | 81 | 319 | 3.0 | 6.0 | 0.00 | 0.00 | 0.00 | 64 | 1005.8 |
| 20260505235045 | 82 | 328 | 4.0 | 7.0 | 0.00 | 0.00 | 0.00 | 63 | 1005.6 |
| 20260505234045 | 85 | 313 | 3.0 | 11.0 | 0.00 | 0.00 | 0.00 | 58 | 1005.5 |
| 20260505233025 | 86 | 313 | 3.0 | 6.0 | 0.00 | 0.00 | 0.00 | 54 | 1005.6 |
| 20260505232025 | 87 | 294 | 2.0 | 4.0 | 0.00 | 0.00 | 0.00 | 52 | 1005.4 |
| 20260505231024 | 87 | 280 | 2.0 | 7.0 | 0.00 | 0.00 | 0.00 | 51 | 1005.1 |
| 20260505230024 | 88 | 239 | 4.0 | 11.0 | 0.00 | 0.00 | 0.00 | 53 | 1004.9 |
| 20260505225024 | 89 | 203 | 4.0 | 7.0 | 0.00 | 0.00 | 0.00 | 56 | 1004.8 |
| 20260505224024 | 89 | 209 | 4.0 | 9.0 | 0.00 | 0.00 | 0.00 | 56 | 1004.8 |
| 20260505223024 | 89 | 231 | 3.0 | 8.0 | 0.00 | 0.00 | 0.00 | 58 | 1004.6 |
| 20260505222024 | 89 | 211 | 3.0 | 7.0 | 0.00 | 0.00 | 0.00 | 58 | 1004.4 |
| 20260505221024 | 88 | 207 | 5.0 | 11.0 | 0.00 | 0.00 | 0.00 | 58 | 1004.6 |
| 20260505220025 | 89 | 203 | 5.0 | 11.0 | 0.00 | 0.00 | 0.00 | 59 | 1004.6 |
| 20260505215025 | 90 | 214 | 4.0 | 11.0 | 0.00 | 0.00 | 0.00 | 56 | 1004.7 |
| 20260505214025 | 90 | 200 | 4.0 | 11.0 | 0.00 | 0.00 | 0.00 | 56 | 1004.9 |
| 20260505213025 | 91 | 226 | 3.0 | 7.0 | 0.00 | 0.00 | 0.00 | 56 | 1004.9 |
| 20260505212023 | 90 | 223 | 5.0 | 13.0 | 0.00 | 0.00 | 0.00 | 57 | 1005.0 |
| 20260505211024 | 89 | 207 | 6.0 | 11.0 | 0.00 | 0.00 | 0.00 | 59 | 1005.0 |
| 20260505210024 | 89 | 208 | 6.0 | 13.0 | 0.00 | 0.00 | 0.00 | 60 | 1005.1 |
| 20260505205024 | 89 | 220 | 5.0 | 13.0 | 0.00 | 0.00 | 0.00 | 62 | 1005.3 |
| 20260505204024 | 88 | 210 | 6.0 | 16.0 | 0.00 | 0.00 | 0.00 | 62 | 1005.4 |
| 20260505203024 | 88 | 202 | 6.0 | 14.0 | 0.00 | 0.00 | 0.00 | 63 | 1005.5 |
| 20260505202024 | 87 | 222 | 5.0 | 16.0 | 0.00 | 0.00 | 0.00 | 64 | 1005.6 |
| 20260505201024 | 87 | 206 | 7.0 | 15.0 | 0.00 | 0.00 | 0.00 | 63 | 1005.5 |
| 20260505200045 | 87 | 203 | 7.0 | 15.0 | 0.00 | 0.00 | 0.00 | 65 | 1005.8 |
| 20260505195045 | 86 | 207 | 6.0 | 15.0 | 0.00 | 0.00 | 0.00 | 65 | 1005.8 |
| 20260505194025 | 86 | 201 | 9.0 | 18.0 | 0.00 | 0.00 | 0.00 | 65 | 1005.9 |
| 20260505193044 | 86 | 218 | 5.0 | 13.0 | 0.00 | 0.00 | 0.00 | 65 | 1005.9 |
| 20260505192024 | 85 | 214 | 9.0 | 17.0 | 0.00 | 0.00 | 0.00 | 68 | 1005.8 |
| 20260505191024 | 84 | 217 | 6.0 | 16.0 | 0.00 | 0.00 | 0.00 | 68 | 1005.9 |
| 20260505190024 | 84 | 209 | 6.0 | 13.0 | 0.00 | 0.00 | 0.00 | 70 | 1006.0 |
| 20260505185024 | 84 | 213 | 7.0 | 15.0 | 0.00 | 0.00 | 0.00 | 69 | 1006.1 |
| 20260505184024 | 83 | 204 | 7.0 | 16.0 | 0.00 | 0.00 | 0.00 | 70 | 1006.0 |
| 20260505183024 | 83 | 210 | 6.0 | 16.0 | 0.00 | 0.00 | 0.00 | 71 | 1006.2 |
| 20260505182025 | 82 | 205 | 9.0 | 19.0 | 0.00 | 0.00 | 0.00 | 72 | 1006.2 |
| 20260505181105 | 82 | 203 | 9.0 | 22.0 | 0.00 | 0.00 | 0.00 | 72 | 1006.3 |
| 20260505180025 | 82 | 210 | 9.0 | 22.0 | 0.00 | 0.00 | 0.00 | 73 | 1006.3 |
| 20260505175025 | 81 | 197 | 9.0 | 21.0 | 0.00 | 0.00 | 0.00 | 73 | 1006.1 |
| 20260505174025 | 81 | 202 | 6.0 | 19.0 | 0.00 | 0.00 | 0.00 | 73 | 1006.4 |
| 20260505173023 | 81 | 206 | 9.0 | 19.0 | 0.00 | 0.00 | 0.00 | 74 | 1006.3 |
| 20260505172023 | 81 | 218 | 6.0 | 15.0 | 0.00 | 0.00 | 0.00 | 73 | 1006.3 |
| 20260505171044 | 81 | 201 | 6.0 | 11.0 | 0.00 | 0.00 | 0.00 | 74 | 1006.3 |
| 20260505170024 | 80 | 214 | 7.0 | 15.0 | 0.00 | 0.00 | 0.00 | 75 | 1006.6 |
| 20260505165024 | 79 | 205 | 7.0 | 18.0 | 0.00 | 0.00 | 0.00 | 76 | 1006.4 |
| 20260505164104 | 79 | 207 | 7.0 | 13.0 | 0.00 | 0.00 | 0.00 | 76 | 1006.3 |
| 20260505163024 | 79 | 205 | 9.0 | 18.0 | 0.00 | 0.00 | 0.00 | 76 | 1006.3 |
| 20260505162024 | 78 | 205 | 9.0 | 21.0 | 0.00 | 0.00 | 0.00 | 77 | 1006.4 |
| 20260505161025 | 79 | 194 | 6.0 | 14.0 | 0.00 | 0.00 | 0.00 | 77 | 1006.3 |
| 20260505153025 | 77 | 203 | 8.0 | 22.0 | 0.00 | 0.00 | 0.00 | 79 | 1006.1 |
| 20260505152023 | 77 | 196 | 10.0 | 23.0 | 0.00 | 0.00 | 0.00 | 80 | 1006.1 |
| 20260505151044 | 76 | 215 | 9.0 | 22.0 | 0.00 | 0.00 | 0.00 | 80 | 1006.3 |
| 20260505125024 | 72 | 201 | 8.0 | 16.0 | 0.00 | 0.00 | 0.00 | 87 | 1005.6 |
| 20260505124024 | 72 | 209 | 7.0 | 16.0 | 0.00 | 0.00 | 0.00 | 87 | 1005.7 |
| 20260505123024 | 72 | 198 | 7.0 | 16.0 | 0.00 | 0.00 | 0.00 | 87 | 1005.4 |
| 20260505122024 | 72 | 207 | 6.0 | 14.0 | 0.00 | 0.00 | 0.00 | 87 | 1005.3 |
| 20260505121024 | 72 | 203 | 7.0 | 18.0 | 0.00 | 0.00 | 0.00 | 87 | 1005.3 |
| 20260505120025 | 72 | 206 | 8.0 | 16.0 | 0.00 | 0.00 | 0.00 | 87 | 1005.3 |
| 20260505115023 | 72 | 199 | 8.0 | 15.0 | 0.00 | 0.00 | 0.00 | 87 | 1005.2 |
| 20260505114023 | 72 | 204 | 8.0 | 16.0 | 0.00 | 0.00 | 0.00 | 87 | 1005.2 |
| 20260505113023 | 72 | 206 | 6.0 | 16.0 | 0.00 | 0.00 | 0.00 | 87 | 1004.9 |
| 20260505112023 | 72 | 202 | 7.0 | 15.0 | 0.00 | 0.00 | 0.00 | 87 | 1005.0 |
| 20260505111044 | 72 | 201 | 7.0 | 16.0 | 0.00 | 0.00 | 0.00 | 87 | 1005.1 |
| 20260505102025 | 72 | 207 | 5.0 | 13.0 | 0.00 | 0.00 | 0.00 | 87 | 1005.2 |
| 20260505101045 | 72 | 195 | 7.0 | 16.0 | 0.00 | 0.00 | 0.00 | 86 | 1005.2 |
| 20260505100023 | 72 | 208 | 7.0 | 15.0 | 0.00 | 0.00 | 0.00 | 87 | 1005.4 |
| 20260505095023 | 72 | 211 | 5.0 | 13.0 | 0.00 | 0.00 | 0.00 | 87 | 1005.3 |
| 20260505094025 | 72 | 217 | 6.0 | 13.0 | 0.00 | 0.00 | 0.00 | 87 | 1005.3 |
| 20260505093045 | 72 | 208 | 6.0 | 13.0 | 0.00 | 0.00 | 0.00 | 87 | 1005.5 |
| 20260505092025 | 71 | 197 | 7.0 | 18.0 | 0.00 | 0.00 | 0.00 | 87 | 1005.6 |
| 20260505091025 | 71 | 214 | 7.0 | 14.0 | 0.00 | 0.00 | 0.00 | 87 | 1005.8 |
| 20260505090024 | 71 | 196 | 7.0 | 21.0 | 0.00 | 0.00 | 0.00 | 87 | 1005.5 |
| 20260505085024 | 71 | 204 | 6.0 | 14.0 | 0.00 | 0.00 | 0.00 | 87 | 1005.6 |
| 20260505084024 | 71 | 202 | 8.0 | 18.0 | 0.00 | 0.00 | 0.00 | 87 | 1005.6 |
| 20260505083024 | 71 | 204 | 6.0 | 14.0 | 0.00 | 0.00 | 0.00 | 87 | 1005.6 |
| 20260505082024 | 71 | 211 | 7.0 | 11.0 | 0.00 | 0.00 | 0.00 | 87 | 1005.7 |
| 20260505081024 | 71 | 198 | 5.0 | 14.0 | 0.00 | 0.00 | 0.00 | 86 | 1005.7 |
| 20260505080025 | 71 | 195 | 6.0 | 11.0 | 0.00 | 0.00 | 0.00 | 86 | 1005.8 |
| 20260505075105 | 72 | 206 | 11.0 | 21.0 | 0.00 | 0.00 | 0.00 | 85 | 1005.9 |
| 20260505074043 | 72 | 198 | 8.0 | 16.0 | 0.00 | 0.00 | 0.00 | 85 | 1006.3 |
| 20260505073043 | 72 | 198 | 8.0 | 15.0 | 0.00 | 0.00 | 0.00 | 84 | 1006.4 |
| 20260505072043 | 72 | 197 | 5.0 | 15.0 | 0.00 | 0.00 | 0.00 | 83 | 1006.6 |
| 20260505071023 | 73 | 208 | 8.0 | 17.0 | 0.00 | 0.00 | 0.00 | 83 | 1006.7 |
| 20260505070023 | 73 | 200 | 6.0 | 14.0 | 0.00 | 0.00 | 0.00 | 82 | 1006.8 |
| 20260505065024 | 73 | 201 | 8.0 | 18.0 | 0.00 | 0.00 | 0.00 | 82 | 1006.9 |
| 20260505064024 | 73 | 215 | 6.0 | 17.0 | 0.00 | 0.00 | 0.00 | 81 | 1007.0 |
| 20260505063044 | 73 | 200 | 8.0 | 15.0 | 0.00 | 0.00 | 0.00 | 81 | 1007.0 |
| 20260505062024 | 73 | 192 | 9.0 | 15.0 | 0.00 | 0.00 | 0.00 | 80 | 1007.1 |
| 20260505061023 | 73 | 204 | 7.0 | 11.0 | 0.00 | 0.00 | 0.00 | 80 | 1007.1 |
| 20260505060023 | 73 | 207 | 5.0 | 13.0 | 0.00 | 0.00 | 0.00 | 79 | 1007.0 |
| 20260505055024 | 73 | 208 | 6.0 | 11.0 | 0.00 | 0.00 | 0.00 | 79 | 1007.1 |
| 20260505054024 | 73 | 221 | 5.0 | 14.0 | 0.00 | 0.00 | 0.00 | 79 | 1007.1 |
| 20260505053024 | 73 | 209 | 7.0 | 17.0 | 0.00 | 0.00 | 0.00 | 78 | 1007.2 |
| 20260505052044 | 73 | 202 | 6.0 | 13.0 | 0.00 | 0.00 | 0.00 | 78 | 1007.2 |
| 20260505051024 | 73 | 196 | 7.0 | 17.0 | 0.00 | 0.00 | 0.00 | 78 | 1007.3 |
| 20260505041023 | 74 | 206 | 5.0 | 13.0 | 0.00 | 0.00 | 0.00 | 75 | 1007.5 |
| 20260505040043 | 74 | 217 | 5.0 | 11.0 | 0.00 | 0.00 | 0.00 | 75 | 1007.6 |
| 20260505035023 | 74 | 205 | 7.0 | 13.0 | 0.00 | 0.00 | 0.00 | 74 | 1007.5 |
| 20260505034044 | 74 | 198 | 6.0 | 15.0 | 0.00 | 0.00 | 0.00 | 74 | 1007.4 |
| 20260505033024 | 75 | 207 | 7.0 | 16.0 | 0.00 | 0.00 | 0.00 | 74 | 1007.3 |
| 20260505032024 | 75 | 209 | 5.0 | 11.0 | 0.00 | 0.00 | 0.00 | 73 | 1007.5 |
| 20260505031024 | 75 | 197 | 6.0 | 15.0 | 0.00 | 0.00 | 0.00 | 73 | 1007.6 |
| 20260505030044 | 75 | 217 | 5.0 | 11.0 | 0.00 | 0.00 | 0.00 | 72 | 1007.5 |
| 20260505025044 | 75 | 215 | 5.0 | 13.0 | 0.00 | 0.00 | 0.00 | 72 | 1007.6 |
| 20260505024023 | 75 | 203 | 7.0 | 15.0 | 0.00 | 0.00 | 0.00 | 72 | 1007.7 |
| 20260505023043 | 75 | 206 | 3.0 | 9.0 | 0.00 | 0.00 | 0.00 | 72 | 1007.4 |
| 20260505022023 | 75 | 202 | 4.0 | 15.0 | 0.00 | 0.00 | 0.00 | 71 | 1007.5 |
| 20260505021023 | 75 | 222 | 3.0 | 8.0 | 0.00 | 0.00 | 0.00 | 71 | 1007.3 |
| 20260505020024 | 76 | 198 | 5.0 | 11.0 | 0.00 | 0.00 | 0.00 | 70 | 1007.2 |
| 20260505015104 | 76 | 208 | 6.0 | 11.0 | 0.00 | 0.00 | 0.00 | 70 | 1007.3 |
| 20260505014024 | 76 | 202 | 6.0 | 13.0 | 0.00 | 0.00 | 0.00 | 69 | 1007.3 |
| 20260505013044 | 77 | 206 | 4.0 | 14.0 | 0.00 | 0.00 | 0.00 | 68 | 1007.3 |
| 20260505012024 | 77 | 205 | 9.0 | 18.0 | 0.00 | 0.00 | 0.00 | 68 | 1007.3 |
| 20260505011044 | 77 | 202 | 8.0 | 14.0 | 0.00 | 0.00 | 0.00 | 67 | 1007.2 |
| 20260505010022 | 77 | 204 | 10.0 | 21.0 | 0.00 | 0.00 | 0.00 | 67 | 1007.2 |
| 20260505005023 | 77 | 206 | 7.0 | 14.0 | 0.00 | 0.00 | 0.00 | 67 | 1007.1 |
| 20260505004043 | 77 | 196 | 7.0 | 22.0 | 0.00 | 0.00 | 0.00 | 67 | 1007.3 |
| 20260505003023 | 78 | 204 | 10.0 | 21.0 | 0.00 | 0.00 | 0.00 | 66 | 1007.4 |
| 20260505002043 | 78 | 199 | 8.0 | 21.0 | 0.00 | 0.00 | 0.00 | 66 | 1007.4 |